R/V Knorr Calliope CSV data file  (Time stamps are GMT)
Date, Time_GMT, Depth12, Depth35, Air_Temp, WXT5_Ta, WXT5_Pa, dec_lat, dec_lon, EDO_knt, GPS_COG, GPS_SOG, Gyro, IMET_BPR, IMET_SWR, WXT5_Ri, WXT5_Rc, HRH, WXT5_Ua, WXT5_Dm, WXT5_Sm, SBE45C, SBE45S, SBE45T, Salinity, SSCND, Fluorometer, SSTMP, SSV, Wnd_Dir, TWD_5, Wnd_Spd, TWS_5, HdChkSum=52
2008/04/10, 00:00:33, 289.50, 0.00, -2.06, -1.40, 1012.5, 70.9134150, 21.7483580, , 250.20, 12.80, 251.00, 1013.31, 0.30, 0.0, 28.38, 66.57, 70.0, 257, 5.0, 34.21830, 34.64920, 6.1794, 34.6492, 34.2183, 132.30, 5.0975, 1470.68, 118.10, 103.8, 9.91, 9.4, 52
2008/04/10, 00:01:33, 282.70, 0.00, -2.03, -1.40, 1012.5, 70.9122670, 21.7378800, , 248.60, 13.15, 251.20, 1013.34, 0.10, 0.0, 28.38, 67.17, 70.7, 248, 6.1, 34.22830, 34.65220, 6.1874, 34.6522, 34.2283, 135.60, 5.1101, 1470.73, 116.90, 103.5, 10.30, 11.0, 52
2008/04/10, 00:02:33, 277.50, 0.00, -2.19, -1.40, 1012.3, 70.9111700, 21.7272900, , 253.80, 13.19, 251.20, 1013.27, 0.10, 0.0, 28.38, 66.55, 70.9, 235, 8.7, 34.23590, 34.65550, 6.1925, 34.6555, 34.2359, 136.50, 5.1264, 1470.80, 115.40, 102.0, 9.53, 13.9, 52
2008/04/10, 00:03:33, 277.70, 0.00, -2.06, -1.50, 1012.4, 70.9101070, 21.7166830, , 252.80, 13.27, 252.40, 1013.23, -0.20, 0.0, 28.38, 66.55, 70.3, 230, 8.1, 34.25040, 34.66270, 6.2015, 34.6627, 34.2504, 137.50, 5.1453, 1470.89, 115.50, 100.0, 11.26, 13.7, 52
2008/04/10, 00:04:33, 265.10, 0.00, -2.11, -1.50, 1012.5, 70.9090500, 21.7061230, , 255.70, 13.02, 250.40, 1013.31, -0.10, 0.0, 28.38, 65.59, 70.4, 240, 5.1, 34.26450, 34.66910, 6.2108, 34.6691, 34.2645, 136.20, 5.1609, 1470.96, 108.30, 94.9, 10.80, 10.3, 52
2008/04/10, 00:05:33, 260.10, 0.00, -2.17, -1.50, 1012.5, 70.9079500, 21.6955820, , 253.90, 13.28, 250.10, 1013.31, -0.20, 0.0, 28.38, 65.02, 68.6, 243, 7.8, 34.29140, 34.67480, 6.2348, 34.6748, 34.2914, 124.60, 5.1764, 1471.03, 111.00, 104.8, 10.45, 12.8, 52
2008/04/10, 00:06:33, 251.20, 0.00, -2.25, -1.60, 1012.5, 70.9069270, 21.6849230, , 254.30, 12.96, 251.90, 1013.25, -0.50, 0.0, 28.38, 64.34, 68.6, 244, 6.2, 34.28600, 34.65590, 6.2473, 34.6559, 34.2860, 116.70, 5.1848, 1471.05, 114.00, 102.5, 10.57, 11.2, 52
2008/04/10, 00:07:33, 251.00, 0.00, -2.25, -1.60, 1012.5, 70.9058920, 21.6743800, , 251.80, 13.40, 251.60, 1013.35, -0.60, 0.0, 28.38, 64.37, 68.6, 251, 6.7, 34.27710, 34.63750, 6.2555, 34.6375, 34.2771, 112.60, 5.1841, 1471.02, 112.60, 105.5, 9.50, 11.0, 52
2008/04/10, 00:08:33, 250.00, 0.00, -2.39, -1.60, 1012.4, 70.9048620, 21.6638120, , 254.50, 12.78, 250.80, 1013.20, -0.60, 0.0, 28.38, 64.47, 68.3, 248, 6.4, 34.29000, 34.62850, 6.2786, 34.6285, 34.2900, 106.20, 5.1770, 1470.98, 118.20, 104.0, 10.02, 10.9, 52
2008/04/10, 00:09:33, 252.60, 0.00, -2.25, -1.60, 1012.5, 70.9037750, 21.6534720, , 252.90, 13.25, 250.30, 1013.23, -0.70, 0.0, 28.38, 64.68, 68.0, 252, 7.0, 34.30890, 34.62500, 6.3029, 34.6250, 34.3089, 104.00, 5.1694, 1470.94, 114.00, 106.2, 10.61, 11.4, 52
2008/04/10, 00:10:32, 248.90, 0.00, -2.25, -1.70, 1012.4, 70.9027230, 21.6429270, , 250.70, 13.07, 250.50, 1013.30, -0.80, 0.0, 28.38, 64.50, 68.3, 229, 5.8, 34.32020, 34.61860, 6.3216, 34.6186, 34.3202, 102.80, 5.1618, 1470.91, 112.90, 93.5, 11.79, 11.6, 52
2008/04/10, 00:11:33, 241.70, 0.00, -2.14, -1.60, 1012.4, 70.9016600, 21.6321650, , 254.90, 13.41, 249.80, 1013.25, -0.80, 0.0, 28.38, 64.39, 70.3, 238, 8.4, 34.31640, 34.60970, 6.3260, 34.6097, 34.3164, 100.70, 5.1553, 1470.87, 102.90, 103.0, 10.53, 13.6, 52
2008/04/10, 00:12:32, 230.00, 0.00, -2.33, -1.60, 1012.5, 70.9006430, 21.6215480, , 253.90, 12.86, 251.50, 1013.33, -0.80, 0.0, 28.38, 64.00, 68.5, 235, 8.0, 34.30460, 34.60220, 6.3205, 34.6022, 34.3046, 100.70, 5.1501, 1470.83, 112.60, 103.3, 11.32, 13.4, 52
2008/04/10, 00:13:33, 210.80, 0.00, -2.47, -1.70, 1012.5, 70.8996320, 21.6109230, , 255.80, 13.17, 252.00, 1013.27, -0.60, 0.0, 28.38, 62.41, 66.8, 229, 6.4, 34.26720, 34.58850, 6.2928, 34.5885, 34.2672, 101.90, 5.1433, 1470.79, 108.80, 96.1, 11.33, 12.4, 52
2008/04/10, 00:14:33, 196.00, 0.00, -2.28, -1.70, 1012.4, 70.8986320, 21.6001850, , 255.50, 12.97, 252.10, 1013.19, -0.90, 0.0, 28.38, 63.95, 68.6, 240, 5.9, 34.23940, 34.58010, 6.2704, 34.5801, 34.2394, 104.00, 5.1389, 1470.76, 100.00, 100.4, 10.80, 11.4, 52
2008/04/10, 00:15:33, 188.70, 0.00, -2.28, -1.60, 1012.4, 70.8976580, 21.5897800, , 253.20, 13.08, 250.50, 1013.10, -0.70, 0.0, 28.38, 64.34, 69.0, 237, 5.5, 34.22240, 34.57570, 6.2559, 34.5757, 34.2224, 104.40, 5.1354, 1470.74, 107.50, 96.7, 10.34, 11.2, 52
2008/04/10, 00:16:32, 189.60, 0.00, -2.14, -1.60, 1012.5, 70.8966670, 21.5792770, , 256.10, 12.64, 251.20, 1013.07, -0.40, 0.0, 28.38, 65.85, 71.0, 222, 7.7, 34.21330, 34.57310, 6.2486, 34.5731, 34.2133, 104.90, 5.1335, 1470.73, 106.80, 94.9, 10.01, 13.6, 52
2008/04/10, 00:17:33, 188.50, 0.00, -2.17, -1.50, 1012.5, 70.8957300, 21.5686380, , 252.80, 12.90, 251.00, 1013.21, -0.40, 0.0, 28.38, 63.59, 69.1, 231, 5.9, 34.20300, 34.56830, 6.2419, 34.5683, 34.2030, 107.70, 5.1342, 1470.73, 98.90, 94.1, 11.65, 11.4, 52
2008/04/10, 00:18:32, 186.90, 0.00, -2.06, -1.50, 1012.4, 70.8947000, 21.5582470, , 253.90, 12.90, 251.00, 1013.25, -0.60, 0.0, 28.38, 64.37, 68.9, 226, 6.6, 34.19630, 34.56650, 6.2362, 34.5665, 34.1963, 109.80, 5.1360, 1470.73, 105.10, 95.2, 11.26, 12.4, 52
2008/04/10, 00:19:32, 186.30, 0.00, -2.19, -1.50, 1012.4, 70.8937600, 21.5477920, , 257.20, 13.13, 252.10, 1013.24, -0.50, 0.0, 28.38, 62.98, 67.5, 219, 7.1, 34.18920, 34.56710, 6.2279, 34.5671, 34.1892, 111.20, 5.1382, 1470.74, 101.80, 93.1, 11.01, 13.3, 52
2008/04/10, 00:20:33, 191.00, 0.00, -2.11, -1.50, 1012.5, 70.8927600, 21.5373120, , 253.40, 13.09, 251.30, 1013.06, -0.50, 0.0, 28.38, 63.72, 69.6, 221, 5.7, 34.18960, 34.56960, 6.2258, 34.5696, 34.1896, 110.40, 5.1396, 1470.75, 94.10, 90.4, 10.91, 11.7, 52
2008/04/10, 00:21:32, 189.90, 0.00, -2.00, -1.40, 1012.3, 70.8917430, 21.5266900, , 251.10, 13.40, 251.10, 1013.03, -0.80, 0.0, 28.38, 65.75, 69.6, 229, 4.2, 34.18710, 34.56870, 6.2239, 34.5703, 34.1889, 108.30, 5.1391, 1470.75, 94.80, 91.2, 9.92, 10.3, 52
2008/04/10, 00:22:33, 191.60, 0.00, -1.92, -1.30, 1012.3, 70.8907280, 21.5161300, , 250.80, 13.02, 251.00, 1013.03, -0.40, 0.0, 28.38, 66.52, 70.1, 238, 7.1, 34.18380, 34.56380, 6.2252, 34.5638, 34.1838, 106.80, 5.1370, 1470.73, 103.30, 104.2, 10.75, 12.9, 52
2008/04/10, 00:23:32, 185.20, 0.00, -2.14, -1.40, 1012.3, 70.8896900, 21.5058630, , 250.30, 13.00, 248.10, 1013.06, -0.40, 0.0, 28.38, 62.30, 66.6, 240, 8.3, 34.18800, 34.56280, 6.2307, 34.5628, 34.1880, 106.40, 5.1336, 1470.71, 105.10, 102.2, 11.51, 13.5, 52
2008/04/10, 00:24:33, 188.10, 0.00, -2.25, -1.60, 1012.2, 70.8885780, 21.4951750, , 254.70, 13.05, 250.30, 1013.22, -0.70, 0.0, 28.38, 62.28, 66.8, 240, 6.7, 34.19610, 34.56380, 6.2386, 34.5638, 34.1961, 104.60, 5.1286, 1470.69, 111.00, 100.1, 10.67, 11.9, 52
2008/04/10, 00:25:33, 189.00, 0.00, -2.36, -1.70, 1012.3, 70.8874450, 21.4846400, , 251.00, 13.27, 252.40, 1013.09, -0.70, 0.0, 28.38, 61.20, 66.3, 239, 5.8, 34.19940, 34.56740, 6.2387, 34.5674, 34.1994, 104.90, 5.1256, 1470.69, 113.60, 98.7, 10.70, 11.0, 52
2008/04/10, 00:26:33, 185.60, 0.00, -2.36, -1.70, 1012.3, 70.8863300, 21.4739770, , 251.40, 13.08, 250.00, 1013.01, -0.90, 0.0, 28.38, 61.91, 67.0, 233, 7.0, 34.20120, 34.57160, 6.2366, 34.5716, 34.2012, 106.20, 5.1268, 1470.70, 108.50, 96.8, 11.09, 12.7, 52
2008/04/10, 00:27:33, 177.20, 0.00, -2.44, -1.70, 1012.3, 70.8851280, 21.4633200, , 249.80, 13.56, 249.90, 1013.07, -0.70, 0.0, 28.38, 61.81, 66.0, 235, 6.3, 34.20050, 34.57700, 6.2305, 34.5770, 34.2005, 108.00, 5.1386, 1470.75, 102.30, 94.3, 11.05, 11.9, 52
2008/04/10, 00:28:32, 167.00, 0.00, -2.14, -1.70, 1012.2, 70.8839800, 21.4525620, , 253.00, 14.05, 249.70, 1013.00, -0.80, 0.0, 28.38, 65.04, 69.7, 228, 7.7, 34.20060, 34.58020, 6.2276, 34.5802, 34.2006, 108.60, 5.1521, 1470.81, 100.80, 95.0, 9.84, 13.6, 52
2008/04/10, 00:29:33, 164.40, 0.00, -2.28, -1.60, 1012.2, 70.8828000, 21.4419980, , 251.00, 13.45, 251.50, 1013.12, -0.60, 0.0, 28.38, 63.87, 68.1, 229, 5.4, 34.20060, 34.59270, 6.2153, 34.5927, 34.2006, 114.50, 5.1706, 1470.90, 102.30, 89.3, 10.83, 11.2, 52
2008/04/10, 00:30:33, 160.60, 0.00, -2.25, -1.60, 1012.2, 70.8816420, 21.4313200, , 251.20, 13.23, 251.70, 1013.09, -0.80, 0.0, 28.38, 63.56, 68.6, 231, 6.7, 34.20480, 34.60420, 6.2086, 34.6042, 34.2048, 124.30, 5.1883, 1470.98, 97.40, 96.5, 10.04, 12.2, 52
2008/04/10, 00:31:33, 163.10, 0.00, -2.11, -1.60, 1012.0, 70.8804120, 21.4205430, , 251.80, 13.09, 249.00, 1013.00, -0.80, 0.0, 28.38, 65.67, 70.7, 218, 5.8, 34.21170, 34.61500, 6.2056, 34.6150, 34.2117, 130.10, 5.2090, 1471.08, 96.30, 85.0, 10.46, 12.0, 52
2008/04/10, 00:32:33, 164.00, 0.00, -2.22, -1.50, 1012.2, 70.8793000, 21.4098950, , 251.40, 13.21, 251.50, 1012.94, -0.40, 0.0, 28.38, 66.06, 71.2, 233, 5.8, 34.22980, 34.62420, 6.2166, 34.6242, 34.2298, 135.30, 5.2252, 1471.16, 99.60, 96.3, 11.12, 11.6, 52
2008/04/10, 00:33:33, 165.10, 0.00, -2.11, -1.40, 1012.2, 70.8781870, 21.3992980, , 252.70, 13.20, 250.80, 1012.94, -0.40, 0.0, 28.38, 65.90, 71.1, 230, 4.5, 34.26090, 34.61970, 6.2552, 34.6197, 34.2609, 124.90, 5.2359, 1471.20, 96.60, 92.3, 9.99, 10.6, 52
2008/04/10, 00:34:32, 179.00, 0.00, -1.97, -1.30, 1012.2, 70.8770020, 21.3888530, , 255.50, 12.71, 252.00, 1012.92, -0.40, 0.0, 28.38, 67.56, 72.4, 221, 5.3, 34.27750, 34.61060, 6.2824, 34.6106, 34.2775, 117.30, 5.2372, 1471.20, 89.50, 88.4, 9.34, 11.1, 52
2008/04/10, 00:35:33, 169.50, 0.00, -1.92, -1.30, 1012.1, 70.8758930, 21.3782750, , 251.20, 13.49, 250.20, 1013.00, -0.50, 0.0, 28.38, 66.68, 71.0, 232, 6.5, 34.28550, 34.60100, 6.3007, 34.6010, 34.2855, 110.80, 5.2304, 1471.16, 86.60, 94.9, 10.63, 12.2, 52
2008/04/10, 00:36:33, 168.20, 0.00, -2.25, -1.30, 1012.1, 70.8747580, 21.3676800, , 249.90, 13.35, 250.80, 1012.93, -0.70, 0.0, 28.38, 64.34, 68.8, 242, 5.2, 34.30040, 34.59390, 6.3240, 34.5939, 34.3004, 104.60, 5.2188, 1471.10, 98.90, 95.8, 11.01, 10.6, 52
2008/04/10, 00:37:33, 166.90, 0.00, -2.22, -1.50, 1012.1, 70.8737000, 21.3571430, , 252.00, 12.95, 249.30, 1012.98, -0.80, 0.0, 28.38, 63.90, 68.3, 237, 6.0, 34.31910, 34.58430, 6.3541, 34.5843, 34.3191, 96.70, 5.2076, 1471.04, 103.70, 97.6, 9.48, 11.3, 52
2008/04/10, 00:38:33, 167.90, 0.00, -2.25, -1.60, 1012.2, 70.8726220, 21.3467170, , 254.30, 13.23, 251.20, 1013.01, -0.80, 0.0, 28.38, 64.00, 68.3, 245, 4.3, 34.31660, 34.57760, 6.3579, 34.5776, 34.3166, 98.20, 5.1916, 1470.97, 101.70, 96.6, 10.20, 9.6, 52
2008/04/10, 00:39:33, 165.80, 0.00, -2.06, -1.50, 1012.0, 70.8715870, 21.3363120, , 256.70, 12.90, 253.80, 1013.01, -0.50, 0.0, 28.38, 65.82, 70.0, 226, 5.6, 34.30970, 34.56960, 6.3582, 34.5696, 34.3097, 97.30, 5.1507, 1470.80, 97.80, 91.4, 9.34, 11.3, 52
2008/04/10, 00:40:33, 169.50, 0.00, -2.17, -1.50, 1012.1, 70.8706000, 21.3259930, , 253.80, 12.79, 252.20, 1012.94, -0.40, 0.0, 28.38, 64.47, 69.4, 236, 6.3, 34.27880, 34.55390, 6.3396, 34.5539, 34.2788, 98.00, 5.0977, 1470.56, 95.80, 99.3, 10.52, 11.6, 52
2008/04/10, 00:41:33, 165.10, 0.00, -2.17, -1.40, 1012.1, 70.8695070, 21.3156250, , 254.20, 12.81, 251.50, 1012.90, -0.20, 0.0, 28.38, 64.11, 68.7, 233, 4.9, 34.24160, 34.54020, 6.3121, 34.5402, 34.2416, 100.70, 5.0532, 1470.37, 97.80, 91.8, 10.92, 10.2, 52
2008/04/10, 00:42:33, 161.20, 0.00, -2.17, -1.50, 1012.1, 70.8684530, 21.3053580, , 254.10, 12.63, 251.00, 1012.90, -0.40, 0.0, 28.38, 63.92, 69.0, 233, 7.5, 34.21260, 34.53360, 6.2867, 34.5336, 34.2126, 102.50, 5.0137, 1470.19, 97.30, 99.0, 10.05, 12.6, 52
2008/04/10, 00:43:32, 162.90, 0.00, -2.11, -1.40, 1012.1, 70.8673580, 21.2950200, , 255.10, 12.97, 251.00, 1012.84, 0.20, 0.0, 28.38, 64.91, 69.9, 225, 4.9, 34.20470, 34.53190, 6.2795, 34.5319, 34.2047, 101.90, 4.9825, 1470.06, 99.60, 87.3, 10.71, 10.6, 52
2008/04/10, 00:44:32, 158.00, 0.00, -2.08, -1.40, 1012.1, 70.8663600, 21.2846370, , 252.30, 12.92, 248.20, 1012.91, 0.30, 0.0, 28.38, 65.46, 70.2, 248, 5.1, 34.16810, 34.51220, 6.2585, 34.5122, 34.1681, 106.20, 4.9467, 1469.90, 93.00, 98.9, 10.03, 10.0, 52
2008/04/10, 00:45:33, 157.40, 0.00, -1.92, -1.30, 1012.1, 70.8652780, 21.2744350, , 252.00, 12.54, 251.60, 1012.79, 0.30, 0.0, 28.38, 67.48, 72.1, 223, 5.9, 33.97570, 34.41430, 6.1421, 34.4143, 33.9757, 126.40, 4.9053, 1469.63, 106.30, 94.3, 9.14, 11.9, 52
2008/04/10, 00:46:33, 154.90, 0.00, -1.75, -1.20, 1012.1, 70.8643420, 21.2641780, , 253.70, 12.42, 250.70, 1012.82, 0.30, 0.0, 28.38, 67.89, 72.2, 240, 8.1, 33.85960, 34.37000, 6.0569, 34.3700, 33.8596, 134.70, 4.8669, 1469.40, 98.80, 104.2, 9.82, 13.0, 52
2008/04/10, 00:47:33, 155.30, 0.00, -2.03, -1.30, 1011.9, 70.8632930, 21.2540970, , 252.90, 12.26, 249.80, 1012.75, 0.30, 0.0, 28.38, 65.38, 69.7, 238, 7.1, 33.81120, 34.35050, 6.0225, 34.3505, 33.8112, 138.40, 4.8317, 1469.22, 107.70, 99.7, 10.18, 12.1, 52
2008/04/10, 00:48:33, 155.70, 0.00, -2.11, -1.40, 1011.9, 70.8623300, 21.2441300, , 257.20, 12.26, 250.00, 1012.77, 0.00, 0.0, 28.38, 63.12, 68.2, 240, 5.3, 33.76370, 34.33110, 5.9887, 34.3311, 33.7637, 140.20, 4.8058, 1469.09, 114.40, 100.4, 10.79, 10.7, 52
2008/04/10, 00:49:33, 162.90, 0.00, -2.00, -1.40, 1012.0, 70.8613180, 21.2338000, , 253.70, 12.67, 250.80, 1012.78, 0.00, 0.0, 28.38, 65.59, 70.0, 235, 7.3, 33.71770, 34.31650, 5.9520, 34.3165, 33.7177, 139.20, 4.7930, 1469.02, 106.20, 99.8, 9.22, 12.4, 52
2008/04/10, 00:50:33, 156.40, 0.00, -2.11, -1.40, 1012.0, 70.8604180, 21.2235180, , 254.50, 12.78, 250.30, 1012.72, -0.20, 0.0, 28.38, 61.70, 66.6, 232, 8.2, 33.67930, 34.30510, 5.9203, 34.3051, 33.6793, 140.50, 4.8022, 1469.04, 110.70, 100.6, 12.27, 13.6, 52
2008/04/10, 00:51:33, 155.40, 0.00, -2.11, -1.50, 1011.9, 70.8594420, 21.2131580, , 253.20, 12.50, 251.20, 1012.69, -0.10, 0.0, 28.38, 62.25, 66.9, 234, 9.6, 33.63580, 34.29230, 5.8846, 34.2923, 33.6358, 144.10, 4.8206, 1469.10, 110.40, 104.3, 10.93, 14.8, 52
2008/04/10, 00:52:33, 151.70, 0.00, -2.19, -1.50, 1011.9, 70.8584830, 21.2028830, , 256.10, 12.70, 251.80, 1012.63, -0.40, 0.0, 28.38, 61.67, 66.0, 233, 6.9, 33.58450, 34.28200, 5.8375, 34.2820, 33.5845, 150.00, 4.8410, 1469.17, 112.10, 99.1, 12.90, 12.2, 52
2008/04/10, 00:53:33, 156.60, 0.00, -2.19, -1.60, 1011.8, 70.8576880, 21.1924750, , 258.50, 12.63, 252.10, 1012.75, -0.50, 0.0, 28.38, 61.49, 66.2, 218, 7.7, 33.55570, 34.28200, 5.8054, 34.2820, 33.5557, 152.40, 4.8703, 1469.28, 111.60, 93.4, 11.37, 13.6, 52
2008/04/10, 00:54:32, 159.50, 0.00, -2.28, -1.60, 1011.9, 70.8568050, 21.1822080, , 251.80, 12.34, 250.60, 1012.71, -0.90, 0.0, 28.38, 62.30, 67.1, 234, 5.5, 33.54800, 34.28300, 5.7958, 34.2830, 33.5480, 154.20, 4.8862, 1469.35, 95.80, 95.4, 11.63, 10.8, 52
2008/04/10, 00:55:32, 161.30, 0.00, -2.19, -1.60, 1011.9, 70.8558970, 21.1719530, , 252.80, 12.60, 249.50, 1012.62, -0.60, 0.0, 28.38, 64.45, 69.2, 226, 7.3, 33.55890, 34.28700, 5.8041, 34.2870, 33.5589, 147.80, 4.8995, 1469.41, 96.00, 95.1, 9.66, 13.0, 52
2008/04/10, 00:56:33, 160.90, 0.00, -2.03, -1.50, 1011.8, 70.8550130, 21.1616370, , 258.50, 12.74, 252.80, 1012.62, -0.50, 0.0, 28.38, 64.47, 69.4, 227, 9.0, 33.64490, 34.31670, 5.8706, 34.3167, 33.6449, 131.30, 4.9096, 1469.48, 104.90, 100.1, 11.55, 14.4, 52
2008/04/10, 00:57:33, 162.70, 0.00, -2.17, -1.50, 1011.9, 70.8541320, 21.1511950, , 254.40, 12.63, 251.60, 1012.68, -0.60, 0.0, 28.38, 64.45, 69.0, 227, 7.3, 33.71350, 34.33230, 5.9317, 34.3323, 33.7135, 127.40, 4.9160, 1469.53, 107.30, 97.5, 11.78, 12.9, 52
2008/04/10, 00:58:33, 159.20, 0.00, -2.28, -1.50, 1011.8, 70.8532320, 21.1408000, , 254.40, 12.40, 250.80, 1012.65, -0.60, 0.0, 28.38, 62.85, 67.5, 227, 5.4, 33.74520, 34.34040, 5.9590, 34.3404, 33.7452, 125.20, 4.9302, 1469.59, 98.80, 92.2, 10.99, 11.1, 52
2008/04/10, 00:59:33, 159.40, 0.00, -2.19, -1.50, 1011.8, 70.8522780, 21.1304970, , 253.00, 12.64, 250.80, 1012.69, -0.50, 0.0, 28.38, 64.03, 68.8, 242, 7.2, 33.80550, 34.35800, 6.0087, 34.3580, 33.8055, 121.00, 4.9596, 1469.75, 97.60, 105.4, 10.51, 12.2, 52
2008/04/10, 01:00:33, 159.00, 0.00, -2.11, -1.50, 1011.7, 70.8513630, 21.1202100, , 255.40, 12.96, 251.60, 1012.45, -0.60, 0.0, 28.38, 64.52, 68.6, 235, 8.4, 33.80340, 34.35540, 6.0089, 34.3554, 33.8034, 122.80, 4.9980, 1469.90, 110.80, 100.7, 10.90, 13.6, 52
2008/04/10, 01:01:33, 162.20, 0.00, -2.31, -1.50, 1011.9, 70.8503880, 21.1099070, , 253.90, 12.27, 250.40, 1012.44, -0.50, 0.0, 28.38, 63.85, 68.4, 227, 7.5, 33.82780, 34.37900, 6.0128, 34.3790, 33.8278, 123.70, 5.0370, 1470.08, 112.50, 97.7, 11.95, 13.4, 52
2008/04/10, 01:02:32, 161.60, 0.00, -2.14, -1.50, 1011.8, 70.8495270, 21.0994070, , 252.60, 12.82, 249.60, 1012.62, -0.40, 0.0, 28.38, 62.28, 67.0, 226, 6.2, 33.83690, 34.39650, 6.0057, 34.3965, 33.8369, 122.80, 5.0732, 1470.25, 107.90, 95.3, 12.46, 12.1, 52
2008/04/10, 01:03:32, 163.50, 0.00, -2.14, -1.50, 1011.7, 70.8485920, 21.0891420, , 253.90, 12.47, 249.20, 1012.47, -0.50, 0.0, 28.38, 64.39, 69.6, 232, 8.9, 33.85860, 34.41570, 6.0109, 34.4157, 33.8586, 120.40, 5.1115, 1470.40, 99.90, 101.4, 11.24, 14.5, 52
2008/04/10, 01:04:33, 166.70, 0.00, -2.06, -1.40, 1011.7, 70.8476020, 21.0784800, , 255.60, 12.73, 251.30, 1012.36, -0.30, 0.0, 28.38, 64.26, 69.0, 220, 6.3, 33.90920, 34.43870, 6.0444, 34.4387, 33.9092, 119.20, 5.1541, 1470.63, 108.80, 90.6, 11.46, 12.5, 52
2008/04/10, 01:05:32, 168.70, 0.00, -1.97, -1.50, 1011.7, 70.8466780, 21.0680020, , 255.60, 12.70, 249.60, 1012.63, -0.30, 0.0, 28.38, 65.02, 69.4, 223, 8.1, 33.99180, 34.46210, 6.1129, 34.4621, 33.9918, 114.50, 5.1873, 1470.79, 100.40, 94.9, 11.03, 14.0, 52
2008/04/10, 01:06:32, 171.20, 0.00, -2.08, -1.50, 1011.7, 70.8457720, 21.0575070, , 253.40, 12.85, 251.00, 1012.57, -0.50, 0.0, 28.38, 64.50, 69.2, 229, 7.1, 34.03880, 34.47140, 6.1557, 34.4714, 34.0388, 110.80, 5.2039, 1470.88, 105.60, 98.6, 12.75, 13.0, 52
2008/04/10, 01:07:32, 176.20, 0.00, -2.00, -1.40, 1011.8, 70.8448050, 21.0470580, , 255.00, 12.53, 251.80, 1012.47, -0.20, 0.0, 28.38, 65.23, 69.9, 231, 7.7, 34.11250, 34.48640, 6.2224, 34.4864, 34.1125, 106.20, 5.2206, 1470.96, 104.30, 98.0, 10.95, 13.2, 52
2008/04/10, 01:08:33, 181.50, 0.00, -2.08, -1.50, 1011.7, 70.8438720, 21.0365620, , 256.10, 12.40, 251.30, 1012.46, -0.60, 0.0, 28.38, 64.81, 69.4, 230, 7.8, 34.15090, 34.49530, 6.2562, 34.4953, 34.1509, 103.70, 5.2261, 1471.00, 109.10, 100.1, 11.30, 13.5, 52
2008/04/10, 01:09:33, 190.70, 0.00, -2.17, -1.50, 1011.8, 70.8429530, 21.0260780, , 257.90, 12.53, 251.20, 1012.52, -0.70, 0.0, 28.38, 64.97, 69.8, 226, 7.2, 34.20700, 34.51290, 6.3008, 34.5129, 34.2070, 101.00, 5.2240, 1471.01, 102.80, 94.7, 11.50, 12.8, 52
2008/04/10, 01:10:33, 193.20, 0.00, -2.03, -1.50, 1011.8, 70.8420200, 21.0155930, , 257.50, 13.18, 251.50, 1012.48, -0.50, 0.0, 28.38, 65.85, 70.3, 238, 5.7, 34.27100, 34.52910, 6.3554, 34.5291, 34.2710, 96.10, 5.2194, 1471.01, 102.50, 96.6, 11.25, 11.1, 52
2008/04/10, 01:11:33, 206.70, 0.00, -2.25, -1.50, 1011.6, 70.8410750, 21.0051450, , 253.00, 12.74, 251.00, 1012.41, -0.40, 0.0, 28.38, 63.72, 68.6, 231, 6.8, 34.28300, 34.52730, 6.3705, 34.5273, 34.2830, 97.30, 5.2141, 1471.00, 108.00, 97.9, 11.54, 12.6, 52
2008/04/10, 01:12:33, 203.70, 0.00, -2.25, -1.50, 1011.6, 70.8401700, 20.9947650, , 250.80, 12.94, 252.00, 1012.27, -0.80, 0.0, 28.38, 62.96, 67.7, 236, 7.4, 34.26830, 34.52520, 6.3563, 34.5252, 34.2683, 102.80, 5.1982, 1470.93, 101.80, 100.6, 11.04, 12.6, 52
2008/04/10, 01:13:33, 209.00, 0.00, -2.14, -1.50, 1011.7, 70.8392920, 20.9844230, , 253.90, 12.70, 249.70, 1012.43, -0.50, 0.0, 28.38, 64.76, 69.6, 232, 5.9, 34.27190, 34.52800, 6.3575, 34.5280, 34.2719, 102.80, 5.1718, 1470.82, 109.20, 98.5, 11.83, 11.7, 52
2008/04/10, 01:14:33, 220.70, 0.00, -2.22, -1.50, 1011.6, 70.8383830, 20.9741300, , 256.00, 12.27, 251.00, 1012.42, -0.50, 0.0, 28.38, 64.60, 69.4, 234, 7.6, 34.25420, 34.52310, 6.3427, 34.5231, 34.2542, 106.80, 5.1342, 1470.67, 108.20, 102.5, 11.11, 13.0, 52
2008/04/10, 01:15:32, 217.70, 0.00, -2.22, -1.60, 1011.7, 70.8375270, 20.9639450, , 252.00, 12.81, 249.80, 1012.51, -0.60, 0.0, 28.38, 64.11, 68.4, 232, 6.6, 34.22640, 34.51590, 6.3193, 34.5159, 34.2264, 110.80, 5.0897, 1470.51, 105.30, 100.0, 11.62, 12.2, 52
2008/04/10, 01:16:32, 218.70, 0.00, -2.19, -1.60, 1011.7, 70.8365970, 20.9541630, , 254.60, 11.72, 248.70, 1012.29, -0.50, 0.0, 28.38, 65.49, 69.6, 236, 8.1, 34.21520, 34.51350, 6.3092, 34.5135, 34.2152, 110.90, 5.0425, 1470.28, 108.50, 102.7, 11.36, 13.1, 52
2008/04/10, 01:17:33, 223.40, 0.00, -2.25, -1.60, 1011.7, 70.8355800, 20.9440480, , 254.20, 12.67, 251.00, 1012.49, -0.60, 0.0, 28.38, 64.91, 69.2, 239, 6.2, 34.19780, 34.51030, 6.2931, 34.5103, 34.1978, 111.20, 4.9712, 1469.99, 109.20, 98.0, 11.89, 11.2, 52
2008/04/10, 01:18:32, 225.40, 0.00, -2.36, -1.60, 1011.5, 70.8346480, 20.9341120, , 254.50, 12.69, 251.70, 1012.29, -0.60, 0.0, 28.38, 63.30, 67.7, 227, 6.6, 34.15080, 34.49400, 6.2572, 34.4940, 34.1508, 114.30, 4.9208, 1469.77, 105.10, 94.6, 10.65, 12.0, 52
2008/04/10, 01:19:33, 227.50, 0.00, -2.17, -1.60, 1011.5, 70.8336730, 20.9241750, , 252.70, 12.31, 248.30, 1012.39, -0.70, 0.0, 28.38, 65.36, 70.3, 234, 7.2, 34.04690, 34.45310, 6.1827, 34.4531, 34.0469, 125.60, 4.8787, 1469.55, 98.20, 99.0, 10.88, 12.5, 52
2008/04/10, 01:20:32, 233.80, 0.00, -2.22, -1.60, 1011.7, 70.8326670, 20.9140900, , 254.50, 12.57, 251.00, 1012.29, -0.40, 0.0, 28.38, 64.91, 69.6, 240, 4.9, 33.97730, 34.43770, 6.1208, 34.4421, 34.0001, 127.10, 4.8512, 1469.41, 105.60, 93.6, 11.20, 9.7, 52
2008/04/10, 01:21:33, 233.30, 0.00, -2.19, -1.50, 1011.6, 70.8315820, 20.9040770, , 251.80, 12.31, 248.60, 1012.37, -0.70, 0.0, 28.38, 65.88, 70.6, 227, 7.0, 33.90930, 34.42600, 6.0569, 34.4260, 33.9093, 143.90, 4.8188, 1469.27, 101.20, 94.0, 9.94, 12.5, 52
2008/04/10, 01:22:33, 240.90, 0.00, -2.00, -1.50, 1011.6, 70.8304450, 20.8942130, , 250.40, 12.40, 250.20, 1012.35, -0.60, 0.0, 28.38, 66.70, 71.1, 226, 6.8, 33.76870, 34.36440, 5.9615, 34.3644, 33.7687, 164.90, 4.7957, 1469.11, 96.80, 92.3, 10.47, 12.4, 52
2008/04/10, 01:23:33, 234.10, 0.00, -2.22, -1.50, 1011.4, 70.8293400, 20.8843430, , 252.70, 12.39, 248.90, 1012.45, -0.20, 0.0, 28.38, 64.60, 69.2, 221, 6.6, 33.67510, 34.33040, 5.8909, 34.3304, 33.6751, 163.40, 4.7794, 1468.99, 101.20, 90.3, 11.41, 12.6, 52
2008/04/10, 01:24:33, 234.20, 0.00, -2.00, -1.50, 1011.6, 70.8281550, 20.8744880, , 249.50, 12.61, 248.30, 1012.40, -0.50, 0.0, 28.38, 66.47, 70.9, 233, 6.1, 33.62190, 34.30450, 5.8571, 34.3045, 33.6219, 150.30, 4.7700, 1468.91, 92.10, 91.5, 10.08, 11.5, 52
2008/04/10, 01:25:33, 238.40, 0.00, -2.14, -1.40, 1011.5, 70.8270550, 20.8647770, , 247.40, 12.48, 247.20, 1012.21, -0.30, 0.0, 28.38, 67.30, 71.6, 220, 7.3, 33.58860, 34.28930, 5.8349, 34.2893, 33.5886, 150.00, 4.7646, 1468.87, 95.20, 89.4, 10.28, 12.7, 52
2008/04/10, 01:26:32, 233.00, 0.00, -2.11, -1.40, 1011.5, 70.8259130, 20.8550280, , 246.40, 12.28, 249.20, 1012.31, -0.40, 0.0, 28.38, 65.90, 70.2, 222, 7.5, 33.57190, 34.28150, 5.8240, 34.2815, 33.5719, 150.80, 4.7670, 1468.87, 95.40, 91.6, 12.52, 13.2, 52
2008/04/10, 01:27:33, 234.10, 0.00, -2.14, -1.50, 1011.5, 70.8247980, 20.8453320, , 248.20, 11.90, 246.30, 1012.37, -0.20, 0.0, 28.38, 67.09, 71.4, 236, 5.4, 33.53710, 34.26030, 5.8060, 34.2603, 33.5371, 149.60, 4.7814, 1468.90, 92.00, 93.1, 11.09, 10.6, 52
2008/04/10, 01:28:33, 235.10, 0.00, -1.97, -1.40, 1011.5, 70.8236470, 20.8357950, , 249.10, 12.01, 246.30, 1012.40, -0.10, 0.0, 28.38, 68.51, 72.8, 235, 7.5, 33.52810, 34.26200, 5.7942, 34.2620, 33.5281, 147.20, 4.7946, 1468.95, 104.80, 98.5, 9.40, 12.6, 52
2008/04/10, 01:29:33, 235.90, 0.00, -1.97, -1.40, 1011.5, 70.8224920, 20.8261980, , 252.50, 12.48, 248.90, 1012.37, -0.10, 0.0, 28.38, 66.44, 71.2, 238, 6.9, 33.53750, 34.26870, 5.7982, 34.2687, 33.5375, 141.70, 4.7921, 1468.95, 110.60, 98.8, 9.70, 11.4, 52
2008/04/10, 01:30:32, 236.70, 0.00, -2.17, -1.50, 1011.6, 70.8213880, 20.8166530, , 249.90, 11.75, 247.90, 1012.30, -0.10, 0.0, 28.38, 63.17, 68.0, 236, 6.6, 33.54040, 34.27070, 5.7995, 34.2707, 33.5404, 139.90, 4.7769, 1468.89, 106.50, 97.2, 10.43, 11.5, 52